Regional Weather Roundup
Issued by NWS

Home | Current Version | Previous Version | Graphics & Text | Print | Product List | Glossary Off
Versions: 1 2 3 4 5 6 7 8 9 10 11 12 13 14 15 16 17 18 19 20 21 22 23 24 25 26 27 28 29 30 31 32 33 34 35 36 37 38 39 40 41 42 43 44 45 46 47 48 49 50

000
ASUS43 KOAX 221302
RWRNE

WEATHER ROUNDUP FOR NEBRASKA
NATIONAL WEATHER SERVICE OMAHA NE
700 AM CST SUN JAN 22 2017

NOTES: SATELLITE DATA IS BEING USED TO AUGMENT CLOUD COVER ABOVE
       12000 FEET.
       "FAIR" INDICATES FEW OR NO CLOUDS BELOW 12,000 FEET WITH NO
       SIGNIFICANT WEATHER AND/OR OBSTRUCTIONS TO VISIBILITY.

  * THESE STATIONS DO NOT REPORT WEATHER SUCH AS RAIN...SNOW OR FOG.

NEZ001>004-019>022-054>056-221400-
NEBRASKA PANHANDLE

CITY           SKY/WX    TMP DP  RH WIND       PRES   REMARKS
SCOTTSBLUFF    CLEAR     23  19  85 NW8       29.83R WCI  14
ALLIANCE       CLEAR     21  18  88 W12       29.79R WCI   9
CHADRON        CLEAR     22  18  85 SW12      29.82R WCI  10
KIMBALL        CLOUDY    31  24  75 NW17G23   29.81R WCI  19
SIDNEY         CLEAR     25  19  78 W13       29.81R WCI  14
$$

NEZ057>060-069>072-079>082-221400-
SOUTHWEST NEBRASKA

CITY           SKY/WX    TMP DP  RH WIND       PRES   REMARKS
NORTH PLATTE   CLOUDY    23  21  92 NW3       29.78R
IMPERIAL       CLOUDY    30  24  78 NW13      29.79R WCI  20
LEXINGTON      CLEAR     28  26  91 W8        29.76R WCI  20
MCCOOK         CLEAR     26  24  92 SW6       29.78R WCI  19
OGALLALA       CLOUDY    29  26  87 CALM      29.80R
$$

NEZ005>010-023>029-035>040-094-221400-
NORTH CENTRAL NEBRASKA

CITY           SKY/WX    TMP DP  RH WIND       PRES   REMARKS
VALENTINE      CLEAR     23  19  85 W8        29.77R WCI  14
AINSWORTH      CLOUDY    26  24  91 W7        29.76R WCI  19
BROKEN BOW     CLEAR     32  25  75 N12       29.74R WCI  23
O`NEILL        CLEAR     26  25  93 NW10      29.74R WCI  17
ORD            CLEAR     28  24  85 N8        29.73R WCI  20
THEDFORD       PTCLDY    25  23  92 W8        29.77R WCI  16
$$

NEZ041-046>049-061>064-073>077-083>087-221400-
SOUTH CENTRAL NEBRASKA

CITY           SKY/WX    TMP DP  RH WIND       PRES   REMARKS
GRAND ISLAND   CLOUDY    27  26  96 NW6       29.74R WCI  20
AURORA         CLEAR     31  29  93 NW12      29.72R WCI  22
HASTINGS       CLEAR     32  27  81 NW15      29.72R WCI  22
HEBRON         CLEAR     32  30  92 N3        29.71R
HOLDREGE       CLEAR     30  28  92 NW8       29.74R WCI  23
KEARNEY *      CLEAR    N/A N/A N/A MISG        N/A
YORK           PTCLDY    32  30  93 NW13      29.71R WCI  22
$$

NEZ011>018-030>034-042>045-221400-
NORTHEAST NEBRASKA

CITY           SKY/WX    TMP DP  RH WIND       PRES   REMARKS
NORFOLK        CLOUDY    29  27  92 N13       29.72R WCI  19
ALBION         CLEAR     26  23  86 CALM      29.73R
BLAIR          CLOUDY    32  30  92 NW14G21   29.69R WCI  22
FREMONT        CLOUDY    32  32  99 NW10      29.72R WCI  24
TEKAMAH        CLOUDY    33  29  85 NW10      29.72R WCI  25
WAYNE          CLOUDY    31  30  95 NW8       29.72R WCI  24
$$

NEZ050>053-065>068-078-088>093-221400-
SOUTHEAST NEBRASKA

CITY           SKY/WX    TMP DP  RH WIND       PRES   REMARKS
LINCOLN        CLOUDY    29  28  96 N5        29.72R WCI  24
OMAHA EPPLEY   CLOUDY    32  28  85 N17       29.70R WCI  21
BEATRICE       CLEAR     29  28  96 N6        29.70R FOG     WCI  22
FALLS CITY     CLOUDY    33  31  92 N7        29.68R WCI  27
NEBRASKA CITY  CLOUDY    31  31  99 N10       29.69R FOG     WCI  22
PLATTSMOUTH    CLOUDY    32  28  87 NW13G20   29.69R WCI  22
$$

NEZ044-045-051>053-067-221400-
OMAHA AREA

CITY           SKY/WX    TMP DP  RH WIND       PRES   REMARKS
OMAHA EPPLEY   CLOUDY    32  28  85 N17       29.70R WCI  21
BLAIR          CLOUDY    32  30  92 NW14G21   29.69R WCI  22
FREMONT        CLOUDY    32  32  99 NW10      29.72R WCI  24
MILLARD        CLOUDY    34  32  90 N10G17    29.71R WCI  26
PLATTSMOUTH    CLOUDY    32  28  87 NW13G20   29.69R WCI  22
WAHOO          CLOUDY    32  30  93 N15G24    29.71R WCI  22
$$




USA.gov is the U.S. government's official web portal to all federal, state and local government web resources and services.